When you browse on this site, cookies collect data to enhance your experience and personalize the content and advertising you see.
Visit our Privacy Policy to learn more. By continuing to use the site, you agree to this use of cookies and data.
  • In Hungary
  • List of Countries
  • For 7 days
  • Water Temperature
  • Satellite Maps
  • Weather Map
  • News
  • Weather Widgets
  • user-avatar
    Login

    Hourly Weather Charkhari

    Today, 19 November, Monday

    Time Temperature Precipitation Wind Pressure Humidity
    00:00 +23°C° 0 mm 2 mps 744 mmHg 35%
    01:00 +21°C° 0 mm 2 mps 744 mmHg 37%
    02:00 +21°C° 0 mm 2 mps 744 mmHg 38%
    03:00 +20°C° 0 mm 2 mps 745 mmHg 39%
    04:00 +20°C° 0 mm 2 mps 745 mmHg 40%
    05:00 +19°C° 0 mm 2 mps 745 mmHg 40%
    06:00 +21°C° 0 mm 2 mps 745 mmHg 39%
    07:00 +23°C° 0 mm 2 mps 746 mmHg 37%
    08:00 +24°C° 0 mm 2 mps 746 mmHg 35%
    09:00 +26°C° 0 mm 2 mps 746 mmHg 31%
    10:00 +28°C° 0 mm 2 mps 746 mmHg 27%
    11:00 +31°C° 0 mm 2 mps 746 mmHg 23%
    12:00 +31°C° 0 mm 2 mps 746 mmHg 22%
    13:00 +32°C° 0 mm 1 mps 745 mmHg 21%
    14:00 +33°C° 0 mm 1 mps 744 mmHg 19%
    15:00 +31°C° 0 mm 1 mps 744 mmHg 21%
    16:00 +30°C° 0 mm 2 mps 744 mmHg 23%
    17:00 +28°C° 0 mm 2 mps 744 mmHg 25%
    18:00 +28°C° 0 mm 2 mps 744 mmHg 27%
    19:00 +27°C° 0 mm 2 mps 745 mmHg 28%
    20:00 +26°C° 0 mm 2 mps 745 mmHg 30%
    21:00 +25°C° 0 mm 2 mps 745 mmHg 31%
    22:00 +25°C° 0 mm 2 mps 745 mmHg 32%
    23:00 +24°C° 0 mm 2 mps 745 mmHg 33%

    Tomorrow, 20 November, Tuesday

    Time Temperature Precipitation Wind Pressure Humidity
    00:00 +24°C° 0 mm 1 mps 745 mmHg 34%
    01:00 +23°C° 0 mm 1 mps 745 mmHg 35%
    02:00 +23°C° 0 mm 1 mps 745 mmHg 35%
    03:00 +22°C° 0 mm 1 mps 745 mmHg 36%
    04:00 +22°C° 0 mm 1 mps 745 mmHg 37%
    05:00 +22°C° 0 mm 1 mps 745 mmHg 37%
    06:00 +23°C° 0 mm 1 mps 745 mmHg 36%
    07:00 +24°C° 0 mm 1 mps 746 mmHg 34%
    08:00 +25°C° 0 mm 1 mps 746 mmHg 32%
    09:00 +27°C° 0 mm 1 mps 746 mmHg 29%
    10:00 +27°C° 0 mm 0 mps 746 mmHg 26%
    11:00 +30°C° 0 mm 0 mps 746 mmHg 23%
    12:00 +32°C° 0 mm 1 mps 746 mmHg 22%
    13:00 +33°C° 0 mm 1 mps 745 mmHg 21%
    14:00 +34°C° 0 mm 2 mps 744 mmHg 20%
    15:00 +32°C° 0 mm 1 mps 744 mmHg 22%
    16:00 +30°C° 0 mm 1 mps 744 mmHg 24%
    17:00 +29°C° 0 mm 1 mps 744 mmHg 26%
    18:00 +28°C° 0 mm 1 mps 744 mmHg 27%
    19:00 +27°C° 0 mm 1 mps 745 mmHg 28%
    20:00 +26°C° 0 mm 1 mps 745 mmHg 30%
    21:00 +26°C° 0 mm 1 mps 745 mmHg 31%
    22:00 +25°C° 0 mm 1 mps 745 mmHg 32%
    23:00 +25°C° 0 mm 1 mps 745 mmHg 33%

    Day after tomorrow, 21 November, Wednesday

    Time Temperature Precipitation Wind Pressure Humidity
    00:00 +22°C° 0 mm 0 mps 745 mmHg 34%
    01:00 +22°C° 0 mm 0 mps 745 mmHg 35%
    02:00 +21°C° 0 mm 0 mps 745 mmHg 37%
    03:00 +21°C° 0 mm 0 mps 745 mmHg 38%
    04:00 +23°C° 0 mm 1 mps 745 mmHg 39%
    05:00 +22°C° 0 mm 1 mps 745 mmHg 40%
    06:00 +23°C° 0 mm 1 mps 745 mmHg 38%
    07:00 +24°C° 0 mm 1 mps 746 mmHg 37%
    08:00 +26°C° 0 mm 1 mps 747 mmHg 35%
    09:00 +27°C° 0 mm 1 mps 747 mmHg 32%
    10:00 +29°C° 0 mm 1 mps 746 mmHg 29%
    11:00 +31°C° 0 mm 1 mps 746 mmHg 26%
    12:00 +31°C° 0 mm 1 mps 746 mmHg 24%
    13:00 +32°C° 0 mm 2 mps 745 mmHg 22%
    14:00 +34°C° 0 mm 2 mps 744 mmHg 20%
    15:00 +31°C° 0 mm 2 mps 744 mmHg 22%
    16:00 +30°C° 0 mm 2 mps 744 mmHg 23%
    17:00 +28°C° 0 mm 2 mps 744 mmHg 25%
    18:00 +27°C° 0 mm 2 mps 744 mmHg 26%
    19:00 +26°C° 0 mm 1 mps 745 mmHg 27%
    20:00 +25°C° 0 mm 1 mps 746 mmHg 28%
    21:00 +25°C° 0 mm 1 mps 746 mmHg 29%
    22:00 +24°C° 0 mm 1 mps 746 mmHg 30%
    23:00 +24°C° 0 mm 1 mps 746 mmHg 31%

    22 November, Thursday

    Time Temperature Precipitation Wind Pressure Humidity
    00:00 +23°C° 0 mm 1 mps 746 mmHg 32%
    01:00 +23°C° 0 mm 1 mps 746 mmHg 32%
    02:00 +22°C° 0 mm 1 mps 745 mmHg 33%
    03:00 +20°C° 0 mm 0 mps 745 mmHg 34%
    04:00 +19°C° 0 mm 0 mps 745 mmHg 34%
    05:00 +19°C° 0 mm 0 mps 745 mmHg 35%
    06:00 +22°C° 0 mm 1 mps 746 mmHg 33%
    07:00 +23°C° 0 mm 1 mps 747 mmHg 32%
    08:00 +25°C° 0 mm 1 mps 747 mmHg 30%
    09:00 +27°C° 0 mm 1 mps 747 mmHg 27%
    10:00 +29°C° 0 mm 1 mps 747 mmHg 23%
    11:00 +29°C° 0 mm 0 mps 747 mmHg 19%
    12:00 +31°C° 0 mm 1 mps 746 mmHg 18%
    13:00 +32°C° 0 mm 1 mps 746 mmHg 17%
    14:00 +32°C° 0 mm 2 mps 745 mmHg 16%
    15:00 +31°C° 0 mm 2 mps 745 mmHg 18%
    16:00 +29°C° 0 mm 2 mps 745 mmHg 20%
    17:00 +28°C° 0 mm 2 mps 745 mmHg 21%
    18:00 +27°C° 0 mm 2 mps 745 mmHg 22%
    19:00 +26°C° 0 mm 2 mps 746 mmHg 23%
    20:00 +25°C° 0 mm 2 mps 746 mmHg 23%
    21:00 +25°C° 0 mm 2 mps 747 mmHg 24%
    22:00 +24°C° 0 mm 1 mps 747 mmHg 25%
    23:00 +23°C° 0 mm 1 mps 747 mmHg 26%

    23 November, Friday

    Time Temperature Precipitation Wind Pressure Humidity
    00:00 +23°C° 0 mm 1 mps 746 mmHg 26%
    01:00 +22°C° 0 mm 1 mps 746 mmHg 27%
    02:00 +20°C° 0 mm 0 mps 746 mmHg 28%
    03:00 +19°C° 0 mm 0 mps 746 mmHg 29%
    04:00 +19°C° 0 mm 0 mps 746 mmHg 29%
    05:00 +18°C° 0 mm 0 mps 746 mmHg 30%
    06:00 +22°C° 0 mm 1 mps 747 mmHg 29%
    07:00 +23°C° 0 mm 1 mps 748 mmHg 29%
    08:00 +24°C° 0 mm 2 mps 748 mmHg 28%
    09:00 +26°C° 0 mm 2 mps 748 mmHg 24%
    10:00 +28°C° 0 mm 3 mps 748 mmHg 20%
    11:00 +30°C° 0 mm 3 mps 748 mmHg 16%
    12:00 +32°C° 0 mm 4 mps 747 mmHg 16%
    13:00 +32°C° 0 mm 4 mps 746 mmHg 15%
    14:00 +33°C° 0 mm 5 mps 746 mmHg 15%
    15:00 +30°C° 0 mm 4 mps 746 mmHg 18%
    16:00 +28°C° 0 mm 3 mps 746 mmHg 20%
    17:00 +26°C° 0 mm 2 mps 746 mmHg 23%
    18:00 +26°C° 0 mm 2 mps 746 mmHg 24%
    19:00 +25°C° 0 mm 2 mps 746 mmHg 25%
    20:00 +24°C° 0 mm 2 mps 747 mmHg 26%
    21:00 +23°C° 0 mm 2 mps 747 mmHg 27%
    22:00 +22°C° 0 mm 3 mps 747 mmHg 28%
    23:00 +22°C° 0 mm 3 mps 746 mmHg 29%

    24 November, Saturday

    Time Temperature Precipitation Wind Pressure Humidity
    00:00 +21°C° 0 mm 3 mps 746 mmHg 29%
    01:00 +21°C° 0 mm 3 mps 746 mmHg 30%
    02:00 +20°C° 0 mm 3 mps 746 mmHg 31%
    03:00 +20°C° 0 mm 3 mps 746 mmHg 32%
    04:00 +19°C° 0 mm 3 mps 746 mmHg 32%
    05:00 +19°C° 0 mm 3 mps 746 mmHg 33%
    06:00 +20°C° 0 mm 3 mps 746 mmHg 32%
    07:00 +21°C° 0 mm 3 mps 747 mmHg 31%
    08:00 +22°C° 0 mm 4 mps 748 mmHg 30%
    09:00 +25°C° 0 mm 4 mps 747 mmHg 27%
    10:00 +27°C° 0 mm 4 mps 747 mmHg 24%
    11:00 +30°C° 0 mm 4 mps 747 mmHg 20%
    12:00 +30°C° 0 mm 4 mps 746 mmHg 20%
    13:00 +32°C° 0 mm 4 mps 746 mmHg 19%
    14:00 +32°C° 0 mm 4 mps 745 mmHg 18%
    15:00 +29°C° 0 mm 4 mps 745 mmHg 21%
    16:00 +28°C° 0 mm 3 mps 745 mmHg 23%
    17:00 +26°C° 0 mm 2 mps 745 mmHg 26%
    18:00 +25°C° 0 mm 2 mps 745 mmHg 28%
    19:00 +24°C° 0 mm 2 mps 746 mmHg 29%
    20:00 +23°C° 0 mm 1 mps 746 mmHg 31%
    21:00 +23°C° 0 mm 1 mps 746 mmHg 32%
    22:00 +22°C° 0 mm 1 mps 746 mmHg 32%
    23:00 +22°C° 0 mm 1 mps 746 mmHg 33%
    Show more